Regional Weather Roundup
Issued by NWS

Home | Current Version | Previous Version | Text Only | Print | Product List | Glossary Off
Versions: 1 2 3 4 5 6 7 8 9 10 11 12 13 14 15 16 17 18 19 20 21 22 23 24 25 26 27 28 29 30 31 32 33 34 35 36 37 38 39 40 41 42 43 44 45 46 47 48 49 50

000
ASUS45 KTFX 231204
RWRMT
MONTANA HOURLY WEATHER ROUNDUP
NATIONAL WEATHER SERVICE GREAT FALLS MT
604 AM MDT WED JUL 23 2014

NOTE: "FAIR" INDICATES FEW OR NO CLOUDS BELOW 12000 FEET WITH NO
SIGNIFICANT WEATHER AND/OR OBSTRUCTIONS TO VISIBILITY.

* THESE STATIONS ARE NOT UNDER NWS QUALITY CONTROL. THEY DO NOT
   REPORT WEATHER SUCH AS PRECIPITATION OR FOG.

MTZ001>007-043-231300-
WEST OF THE DIVIDE
CITY           SKY/WX    TMP DP  RH WIND       PRES   REMARKS
KALISPELL      CLOUDY    57  55  93 VRB5      30.19R
MISSOULA       LGT RAIN  63  57  81 SE3       30.24R
BUTTE          MOCLDY    59  48  67 W10       30.30R
MULLAN PASS    LGT RAIN  50  46  86 CALM      30.28R
* ESSEX        N/A       54  52  93 S2         N/A
* LINCOLN      N/A       58  54  87 SW7G15     N/A
* LOOKOUT PASS N/A       53  53 100 SW2G9      N/A
* POLSON       N/A       58  55  90 N/A        N/A
* RONAN APT    CLOUDY    57  55  93 N/A        N/A
* SEELEY LAKE  N/A       55  54  96 S4G11      N/A
* THOMP F APT  CLOUDY    63  33  33 NE4        N/A
* YAAK HILL    N/A       58  55  90 N/A        N/A
$$

MTZ008-052>055-231300-
SOUTHWEST MONTANA
CITY           SKY/WX    TMP DP  RH WIND       PRES   REMARKS
BOZEMAN        PTCLDY    55  52  90 E6        30.21R
DILLON         MOCLDY    59  46  62 VRB3      30.22R
W YELLOWSTONE  PTCLDY    41  39  93 CALM      30.31R
* THREE FORKS  MOCLDY    59  -4   7 N/A        N/A
* BOULDER HILL N/A       59  46  62 N8G14      N/A
* MONIDA PASS  N/A       54  39  57 W14        N/A
* RAYNOLDS PAS N/A       49  30  48 SE5        N/A
* WHITEHALL    N/A       63  50  63 NE1G24     N/A
* WISE RIVER   N/A       54  48  80 W6G17      N/A
$$

MTZ009>010-012-014-046-048-049-054-231300-
EAST SLOPES AND CENTRAL MONTANA
CITY           SKY/WX    TMP DP  RH WIND       PRES   REMARKS
CUT BANK       CLOUDY    54  50  86 SW5       30.16R
GREAT FALLS    CLOUDY    57  55  93 SW13      30.18R
HELENA         CLOUDY    64  55  73 SW10      30.20R
MALMSTROM AFB  MOCLDY    63  55  75 W18G25    30.21R
* CONRAD       CLOUDY    55  55 100 N/A        N/A
* DEARBORN     N/A       60  57  90 SW4G15     N/A
* EAST GLACIER N/A       58  48  70 W11G19     N/A
* MONARCH      N/A       58  44  60 S2         N/A
* PENDROY      N/A       59  52  78 NW4G9      N/A
* SAINT MARY   N/A       51  50  96 SW5        N/A
* SWEET GRASS  N/A       62  56  81 S16        N/A
$$

MTZ011-013-016-021-035-040-045-047-050-051-231300-
NORTH CENTRAL MONTANA
CITY           SKY/WX    TMP DP  RH WIND       PRES   REMARKS
HAVRE          PTCLDY    61  52  72 NE10      30.11F
LEWISTOWN      CLOUDY    57  52  83 SE5       30.18F
* CHESTER      N/A       63  53  70 E3         N/A
* DENTON       N/A       63  56  78 SE12       N/A
* JUDITH GAP   N/A       56  56 100 N/A        N/A
* LOMA         N/A       67  54  63 NE14       N/A
$$

MTZ017>020-022>027-061-062-231300-
NORTHEAST MONTANA
CITY           SKY/WX    TMP DP  RH WIND       PRES   REMARKS
GLASGOW        PTCLDY    61  57  87 SE7       30.18F
GLENDIVE       CLEAR     61  57  87 E6        30.23R
JORDAN         PTCLDY    57  55  93 E5        30.18S
SIDNEY         PTCLDY    61  57  87 N3        30.23R
WOLF POINT     FOG       57  55  93 E5        30.21R VSB 3
* BEAVER HILL  N/A       60  58  93 SE10       N/A
* CIRCLE       N/A       62  59  90 N/A        N/A
* LINDSAY DVD  N/A       59  59 100 NE6        N/A
* NAVAJO       N/A       57  56  96 NE3        N/A
$$

MTZ028>042-056>058-231300-
SOUTHCENTRAL AND SOUTHEAST MONTANA
CITY           SKY/WX    TMP DP  RH WIND       PRES   REMARKS
BAKER          CLEAR     57  55  93 SE5       30.24R
BILLINGS       FOG       63  57  81 NE3       30.18S
LIVINGSTON     PTCLDY    54  48  80 W7        30.20F
MILES CITY     CLEAR     61  61 100 NE6       30.18S
* LAUREL APT   CLOUDY    61  55  81 N/A        N/A
* ROUNDUP APT  PTCLDY    59  54  84 N/A        N/A
* ALZADA       N/A       59  58  97 S1         N/A
* HYSHAM       N/A       61  58  90 NE4        N/A
* LAME DEER    N/A       65  56  73 S13        N/A
* REED POINT   N/A       56  55  96 W4         N/A
* ROSCOE HILL  N/A       60  42  52 W2         N/A
$$

REGIONAL REPORTS...DAKOTAS
CITY           SKY/WX    TMP DP  RH WIND       PRES   REMARKS
WILLISTON      CLEAR     66  63  90 CALM      30.23R
DICKINSON      CLEAR     61  59  93 E8        30.22F
CROSBY         N/A       59  59 100 E9        30.26S
TIOGA          CLEAR     57  57 100 E7        30.28S
WATFORD CITY   PTCLDY    63  63 100 SE10      30.21S
BISMARCK       PTCLDY    64  61  90 E7        30.27R
GRAND FORKS    CLOUDY    59  57  93 NW3       30.30R
FARGO          PTCLDY    61  55  81 CALM      30.29R
BUFFALO SD     CLEAR     61  57  87 E8        30.17S
RAPID CITY     PTCLDY    64  57  78 S6        30.24F
$$

REGIONAL REPORTS...WYOMING/IDAHO/WASHINGTON
CITY           SKY/WX    TMP DP  RH WIND       PRES   REMARKS
GILLETTE       CLEAR     66  59  78 SE15      30.27S
SHERIDAN       PTCLDY    66  57  73 SE20G26   30.19F
CODY           PTCLDY    61  45  56 S6        30.25R
YELLOWSTONE LA MOCLDY    50  43  77 CALM      30.44R
SALMON         CLOUDY    57  54  90 CALM      30.23R
MULLAN PASS    LGT RAIN  50  46  86 CALM      30.28S
SAND POINT     CLOUDY    59  55  87 NE6       30.11R
SPOKANE        MOCLDY    63  54  73 CALM      30.06F

$$



USA.gov is the U.S. government's official web portal to all federal, state and local government web resources and services.